Weather History for Baker, OR

Change the Weather History Date:

Sunday, February 24, 2013

  Actual Average Record
Temperature  
Mean Temperature 29 °F 32 °F  
Max Temperature 40 °F 43 °F 66 °F (1986)
Min Temperature 17 °F 21 °F 10 °F (1962)
Degree Days  
Heating Degree Days 36 33  
Month to date heating degree days 805 866  
Since 1 July heating degree days 5258 5389  
Cooling Degree Days 0 0  
Month to date cooling degree days 0 0  
Year to date cooling degree days 0 0  
Moisture  
Dew Point 20 °F    
Average Humidity 68    
Maximum Humidity 92    
Minimum Humidity 44    
Precipitation  
Precipitation 0.00 in 0.02 in 0.24 in (1994)
Month to date precipitation 0.28 0.49  
Year to date precipitation 1.12 1.29  
Sea Level Pressure  
Sea Level Pressure 30.32 in    
Wind  
Wind Speed 5 mph (SE)    
Max Wind Speed 13 mph    
Max Gust Speed 16 mph    
Visibility 10 miles    
Events      
T = Trace of Precipitation, MM = Missing Value Source: NWS Daily Summary

Daily Weather History Graph

Daily Weather History Graph

Search for Another Location

Airport:

Trip Planner

Search our weather history database for the weather conditions in past years. The results will help you decide how hot, cold, wet, or windy it might be!

Date:

Astronomy

Feb. 24, 2013 Rise Set
Actual Time 6:36 AM PST 5:32 PM PST
Civil Twilight 6:07 AM PST 6:02 PM PST
Nautical Twilight 5:33 AM PST 6:36 PM PST
Astronomical Twilight 4:59 AM PST 7:10 PM PST
Moon 4:48 PM PST (2/24) 5:37 AM PST (2/24)
Length of Visible Light 11h 54m
Length of Day
10h 55m
Waxing Gibbous, 99% of the Moon is Illuminated
Feb 24
Waxing Gibbous
Feb 25
Full
Mar 4
Last Quarter
Mar 11
New
Mar 19
First Quarter

Hourly Weather History & Observations

Time (PST) Temp. Windchill Dew Point Humidity Pressure Visibility Wind Dir Wind Speed Gust Speed Precip Events Conditions
12:53 AM 25.0 °F 20.7 °F 21.9 °F 88% 30.33 in 10.0 mi SW 3.5 mph - N/A   Mostly Cloudy
1:53 AM 25.0 °F 19.3 °F 19.9 °F 81% 30.34 in 10.0 mi West 4.6 mph - N/A   Overcast
2:53 AM 21.9 °F 17.2 °F 18.0 °F 85% 30.36 in 10.0 mi WSW 3.5 mph - N/A   Overcast
3:53 AM 21.2 °F 14.9 °F 17.6 °F 86% 30.28 in 10.0 mi South 4.6 mph - N/A   Scattered Clouds
4:53 AM 19.0 °F - 16.0 °F 88% 30.39 in 10.0 mi Calm Calm - N/A   Clear
5:53 AM 18.0 °F - 16.0 °F 92% 30.40 in 10.0 mi Calm Calm - N/A   Clear
6:53 AM 17.1 °F - 14.0 °F 88% 30.41 in 10.0 mi Calm Calm - N/A   Clear
7:53 AM 23.0 °F 17.0 °F 19.0 °F 85% 30.41 in 10.0 mi SW 4.6 mph - N/A   Clear
8:53 AM 28.0 °F 24.2 °F 21.0 °F 75% 30.40 in 10.0 mi SSE 3.5 mph - N/A   Clear
9:53 AM 30.9 °F 27.5 °F 19.9 °F 64% 30.40 in 10.0 mi Variable 3.5 mph - N/A   Clear
10:53 AM 33.1 °F 28.7 °F 21.0 °F 61% 30.38 in 10.0 mi SE 4.6 mph - N/A   Scattered Clouds
12:53 PM 37.0 °F 33.3 °F 19.0 °F 48% 30.34 in 10.0 mi Variable 4.6 mph - N/A   Clear
1:53 PM 39.0 °F 36.8 °F 21.9 °F 50% 30.32 in 10.0 mi Variable 3.5 mph - N/A   Clear
2:53 PM 39.0 °F 36.8 °F 19.9 °F 46% 30.31 in 10.0 mi Variable 3.5 mph - N/A   Clear
3:53 PM 37.9 °F 34.4 °F 21.0 °F 51% 30.30 in 10.0 mi East 4.6 mph - N/A   Clear
4:53 PM 35.1 °F - 23.0 °F 61% 30.30 in 10.0 mi Calm Calm - N/A   Clear
5:53 PM 32.0 °F 24.8 °F 23.0 °F 69% 30.29 in 10.0 mi East 8.1 mph - N/A   Clear
6:53 PM 28.9 °F 25.2 °F 23.0 °F 78% 30.30 in 10.0 mi ESE 3.5 mph - N/A   Clear
7:53 PM 30.0 °F 21.7 °F 21.0 °F 69% 30.26 in 10.0 mi East 9.2 mph - N/A   Clear
8:53 PM 28.9 °F 19.8 °F 21.0 °F 72% 30.25 in 10.0 mi East 10.4 mph - N/A   Clear
9:53 PM 28.9 °F 19.8 °F 21.0 °F 72% 30.23 in 10.0 mi East 10.4 mph - N/A   Clear
10:53 PM 28.9 °F 20.4 °F 21.0 °F 72% 30.21 in 10.0 mi ESE 9.2 mph - N/A   Clear
11:53 PM 28.9 °F 19.8 °F 21.0 °F 72% 30.19 in 10.0 mi East 10.4 mph - N/A   Clear